Weather History for KHEI - December, 2012

Change the Weather History Date:

Wednesday, December 5, 2012

  Actual Average Record
Temperature  
Mean Temperature 36 °F -  
Max Temperature 49 °F 32 °F 49 °F (2012)
Min Temperature 22 °F 9 °F -22 °F (2013)
Degree Days  
Heating Degree Days 29 44  
Month to date heating degree days 134 218  
Since 1 July heating degree days 2112 2348  
Moisture  
Dew Point 23 °F    
Average Humidity 63    
Maximum Humidity 88    
Minimum Humidity 42    
Precipitation  
Precipitation 0.00 in 0.01 in 0.02 in (2001)
Month to date precipitation T 0.03  
Year to date precipitation 14.58 15.82  
Sea Level Pressure  
Sea Level Pressure 29.86 in    
Wind  
Wind Speed 7 mph (SSW)    
Max Wind Speed 26 mph    
Max Gust Speed 32 mph    
Visibility 10 miles    
Events      
T = Trace of Precipitation, MM = Missing Value Source: NWS Daily Summary

Daily Weather History Graph

Daily Weather History Graph

Search for Another Location

Airport or City:

Trip Planner

Search our weather history database for the weather conditions in past years. The results will help you decide how hot, cold, wet, or windy it might be!

Date:

Astronomy

Dec. 05, 2012 Rise Set
Actual Time 7:17 AM MST 4:05 PM MST
Civil Twilight 6:43 AM MST 4:39 PM MST
Nautical Twilight 6:05 AM MST 5:17 PM MST
Astronomical Twilight 5:29 AM MST 5:53 PM MST
Moon 11:14 PM MST (12/5) 11:26 AM MST (12/5)
Length of Visible Light 9h 56m
Length of Day
8h 48m
Waning Gibbous, 59% of the Moon is Illuminated
Dec 5
Waning Gibbous
Dec 6
Last Quarter
Dec 13
New
Dec 19
First Quarter
Dec 28
Full

Hourly Weather History & Observations

Time (MST) Temp. Windchill Dew Point Humidity Pressure Visibility Wind Dir Wind Speed Gust Speed Precip Events Conditions
12:53 AM 21.9 °F 13.4 °F 17.1 °F 82% 30.07 in 10.0 mi ESE 6.9 mph - N/A   Clear
1:53 AM 21.9 °F 14.5 °F 18.0 °F 85% 30.06 in 10.0 mi SE 5.8 mph - N/A   Clear
2:53 AM 23.0 °F 13.1 °F 18.0 °F 81% 30.02 in 10.0 mi SE 9.2 mph - N/A   Clear
3:53 AM 24.1 °F 14.4 °F 19.0 °F 81% 29.99 in 10.0 mi SSE 9.2 mph - N/A   Clear
4:53 AM 23.0 °F 14.7 °F 19.0 °F 85% 29.97 in 10.0 mi SE 6.9 mph - N/A   Clear
5:53 AM 23.0 °F 13.9 °F 18.0 °F 81% 29.95 in 10.0 mi SE 8.1 mph - N/A   Clear
7:53 AM 25.0 °F 18.1 °F 19.9 °F 81% 29.91 in 10.0 mi SE 5.8 mph - N/A   Clear
8:53 AM 28.9 °F 21.9 °F 21.0 °F 72% 29.87 in 10.0 mi SSE 6.9 mph - N/A   Clear
9:53 AM 32.0 °F 28.7 °F 21.9 °F 66% 29.86 in 10.0 mi South 3.5 mph - N/A   Clear
10:53 AM 35.1 °F 32.2 °F 23.0 °F 61% 29.81 in 10.0 mi SSW 3.5 mph - N/A   Clear
11:53 AM 39.0 °F 35.7 °F 23.0 °F 53% 29.76 in 10.0 mi SSW 4.6 mph - N/A   Clear
12:53 PM 44.1 °F 41.5 °F 25.0 °F 47% 29.73 in 10.0 mi WSW 4.6 mph - N/A   Clear
1:53 PM 48.9 °F - 27.0 °F 43% 29.70 in 10.0 mi Calm Calm - N/A   Clear
2:53 PM 46.9 °F - 27.0 °F 46% 29.70 in 10.0 mi Calm Calm - N/A   Clear
3:53 PM 45.0 °F - 28.0 °F 52% 29.71 in 10.0 mi Calm Calm - N/A   Partly Cloudy
4:53 PM 45.0 °F 42.6 °F 28.9 °F 53% 29.73 in 10.0 mi West 4.6 mph - N/A   Overcast
5:53 PM 44.1 °F 40.8 °F 28.9 °F 55% 29.75 in 10.0 mi NNW 5.8 mph - N/A   Mostly Cloudy
6:53 PM 44.1 °F 41.5 °F 30.0 °F 58% 29.76 in 10.0 mi NW 4.6 mph - N/A   Mostly Cloudy
7:53 PM 46.9 °F - 30.0 °F 52% 29.81 in 10.0 mi NNW 23.0 mph 32.2 mph N/A   Partly Cloudy
8:53 PM 39.9 °F 32.1 °F 26.1 °F 58% 29.84 in 10.0 mi NNW 13.8 mph - N/A   Clear
9:53 PM 41.0 °F 34.3 °F 23.0 °F 49% 29.88 in 10.0 mi NW 11.5 mph - N/A   Mostly Cloudy
10:53 PM 37.0 °F 27.7 °F 19.9 °F 50% 29.92 in 10.0 mi NW 16.1 mph - N/A   Clear
11:53 PM 33.1 °F 25.5 °F 19.9 °F 59% 29.94 in 10.0 mi WNW 9.2 mph - N/A   Clear